Flag for Portugal Weather past 2 weeks in Vila Nova de Gaia, Portugal

Now
72 °F

Passing clouds.


Feels Like: 74 °F
Forecast: 60 / 71 °F
Wind: 9 mph from Northwest

Location: Porto / Pedras Rubras

Current Time: Sep 1, 2015 at 2:04:28 PM

Latest Report: Sep 1, 2015 at 1:30 PM


Visibility: N/A

Pressure: 30.07 "Hg

Humidity: 73%

Dew point: 63 °F

Location of Vila Nova de GaiaLocation

Historic Weather in Vila Nova de Gaia — Graph

°F

Vila Nova de Gaia temperature yesterday

Maximum temperature yesterday: 75 °F (at 3:00 PM)
Minimum temperature yesterday: 63 °F (at 11:30 PM)
Average temperature yesterday: 68 °F

Past Weeks' High & Low Weather Summary

 TemperatureHumidityPressure
High81 °F (Aug 19, 3:00 PM)100% (Aug 18, 1:00 AM)30.15 "Hg (Aug 18, 1:00 AM)
Low54 °F (Aug 18, 7:00 AM)42% (Aug 19, 4:00 PM)29.83 "Hg (Aug 23, 3:30 PM)
Average66 °F87%30.01 "Hg
* Reported Aug 17 12:00 Noon — Sep 1 12:30 PM, Vila Nova de Gaia, Weather by CustomWeather, © 2015

Note: Actual official high and low records may vary slightly from our data, if they occured in-between our weather recording intervals... More about our weather records

Advertising

Vila Nova de Gaia weather history for previous 24 hours

 ConditionsComfort  
Time TempWeatherWind HumidityBarometerVisibility
12:30 PM
Tue, Sep 1
70 °FPassing clouds.7 mph78%30.07 "HgN/A
12:00 PM72 °FPassing clouds.6 mph83%30.07 "Hg4 mi
11:30 AM72 °FFog.7 mph83%30.07 "Hg3 mi
11:00 AM73 °FPassing clouds.3 mph78%30.07 "Hg4 mi
10:30 AM70 °FPartly sunny.2 mph88%30.07 "Hg4 mi
10:00 AM66 °FFog.6 mph100%30.07 "Hg3 mi
9:30 AM64 °FFog.3 mph100%30.07 "Hg3 mi
9:00 AM64 °FFog.1 mph100%30.07 "Hg1 mi
8:30 AM64 °FFog.1 mph100%30.04 "Hg0 mi
8:00 AM63 °FFog.2 mph100%30.04 "Hg0 mi
7:30 AM63 °FFog.No wind100%30.04 "Hg0 mi
7:00 AM63 °FFog.2 mph100%30.04 "Hg0 mi
6:30 AM61 °FFog.3 mph100%30.01 "Hg0 mi
6:00 AM61 °FPassing clouds.2 mph100%30.01 "Hg4 mi
5:30 AM61 °FPassing clouds.No wind100%30.01 "Hg4 mi
4:30 AM61 °FClear.3 mph100%30.04 "Hg4 mi
4:00 AM61 °FClear.1 mph100%30.04 "Hg4 mi
3:30 AM63 °FPassing clouds.3 mph100%30.04 "Hg4 mi
3:00 AM61 °FPassing clouds.No wind100%30.04 "Hg5 mi
2:30 AM61 °FPassing clouds.2 mph94%30.04 "Hg5 mi
2:00 AM63 °FPassing clouds.1 mph94%30.04 "Hg4 mi
1:30 AM61 °FPassing clouds.2 mph100%30.04 "Hg5 mi
1:00 AM63 °FPassing clouds.No wind100%30.04 "Hg4 mi
12:30 AM63 °FClear.No wind100%30.04 "Hg5 mi
12:00 AM63 °FClear.No wind94%30.04 "Hg4 mi
11:30 PM
Mon, Aug 31
63 °FClear.No wind100%30.04 "Hg5 mi
10:30 PM64 °FClear.2 mph94%30.04 "Hg5 mi
10:00 PM64 °FClear.5 mph100%30.01 "Hg10 mi
9:30 PM66 °FClear.3 mph94%30.04 "Hg10 mi
9:00 PM66 °FSunny.3 mph94%30.01 "Hg10 mi
8:30 PM66 °FSunny.7 mph94%30.01 "Hg10 mi
8:00 PM68 °FClear.7 mph88%30.01 "Hg6 mi
7:30 PM68 °FPassing clouds.6 mph88%30.01 "HgN/A
7:00 PM70 °FPassing clouds.6 mph83%30.01 "HgN/A
6:30 PM70 °FPassing clouds.8 mph83%30.01 "HgN/A
6:00 PM70 °FPassing clouds.9 mph88%30.01 "HgN/A
5:30 PM72 °FPassing clouds.8 mph78%30.01 "HgN/A
5:00 PM72 °FPassing clouds.7 mph78%30.01 "HgN/A
4:30 PM73 °FScattered clouds.6 mph74%30.01 "HgN/A
4:00 PM73 °FPassing clouds.7 mph74%30.01 "HgN/A
3:30 PM73 °FScattered clouds.7 mph74%30.01 "HgN/A
3:00 PM75 °FScattered clouds.5 mph69%30.01 "HgN/A
2:30 PM73 °FScattered clouds.3 mph74%30.01 "HgN/A
2:00 PM72 °FPartly sunny.6 mph78%30.01 "HgN/A
Weather by CustomWeather, © 2015

See weather overviewHow to use our weather pages